EN

Hourly Weather Togashevo

Today, 10 May, Monday

Time Temperature Precipitation Wind Pressure Humidity
00:00 +14°C° 0.2 mm 1 mps 750 mmHg 94%
01:00 +13°C° 0.1 mm 1 mps 751 mmHg 95%
02:00 +13°C° 0.1 mm 1 mps 751 mmHg 96%
03:00 +13°C° 0.1 mm 1 mps 752 mmHg 97%
04:00 +13°C° 0.3 mm 1 mps 752 mmHg 97%
05:00 +13°C° 0.3 mm 1 mps 753 mmHg 97%
06:00 +12°C° 0.3 mm 0 mps 753 mmHg 97%
07:00 +13°C° 0 mm 1 mps 754 mmHg 95%
08:00 +14°C° 0 mm 1 mps 754 mmHg 93%
09:00 +14°C° 0 mm 2 mps 755 mmHg 90%
10:00 +14°C° 0.1 mm 2 mps 756 mmHg 91%
11:00 +12°C° 0.1 mm 3 mps 756 mmHg 92%
12:00 +11°C° 0.1 mm 3 mps 757 mmHg 93%
13:00 +12°C° 0.1 mm 3 mps 758 mmHg 90%
14:00 +12°C° 0.1 mm 3 mps 758 mmHg 88%
15:00 +12°C° 0.1 mm 3 mps 758 mmHg 86%
16:00 +12°C° 0 mm 3 mps 759 mmHg 86%
17:00 +12°C° 0 mm 3 mps 759 mmHg 86%
18:00 +12°C° 0 mm 3 mps 759 mmHg 86%
19:00 +11°C° 0 mm 3 mps 759 mmHg 89%
20:00 +10°C° 0 mm 3 mps 760 mmHg 92%
21:00 +8°C° 0 mm 3 mps 760 mmHg 95%
22:00 +8°C° 0 mm 3 mps 760 mmHg 95%
23:00 +8°C° 0 mm 3 mps 760 mmHg 96%

Tomorrow, 11 May, Tuesday

Time Temperature Precipitation Wind Pressure Humidity
00:00 +7°C° 0 mm 3 mps 760 mmHg 96%
01:00 +7°C° 0 mm 3 mps 761 mmHg 96%
02:00 +7°C° 0 mm 3 mps 761 mmHg 97%
03:00 +5°C° 0 mm 3 mps 761 mmHg 97%
04:00 +7°C° 0 mm 3 mps 761 mmHg 94%
05:00 +8°C° 0 mm 3 mps 761 mmHg 91%
06:00 +8°C° 0 mm 4 mps 762 mmHg 88%
07:00 +11°C° 0 mm 4 mps 762 mmHg 82%
08:00 +13°C° 0 mm 4 mps 762 mmHg 76%
09:00 +16°C° 0 mm 3 mps 762 mmHg 69%
10:00 +18°C° 0 mm 3 mps 762 mmHg 66%
11:00 +19°C° 0 mm 3 mps 762 mmHg 62%
12:00 +21°C° 0 mm 3 mps 762 mmHg 58%
13:00 +21°C° 0 mm 3 mps 762 mmHg 57%
14:00 +22°C° 0 mm 3 mps 762 mmHg 56%
15:00 +24°C° 0 mm 3 mps 762 mmHg 55%
16:00 +22°C° 0 mm 3 mps 762 mmHg 60%
17:00 +21°C° 0 mm 3 mps 762 mmHg 64%
18:00 +20°C° 0 mm 3 mps 762 mmHg 69%
19:00 +19°C° 0 mm 2 mps 762 mmHg 76%
20:00 +17°C° 0 mm 2 mps 762 mmHg 83%
21:00 +15°C° 0 mm 2 mps 762 mmHg 90%
22:00 +15°C° 0 mm 2 mps 762 mmHg 91%
23:00 +14°C° 0 mm 2 mps 762 mmHg 91%

Day after tomorrow, 12 May, Wednesday

Time Temperature Precipitation Wind Pressure Humidity
00:00 +14°C° 0 mm 2 mps 763 mmHg 91%
01:00 +13°C° 0 mm 2 mps 762 mmHg 93%
02:00 +13°C° 0 mm 2 mps 762 mmHg 94%
03:00 +13°C° 0 mm 2 mps 762 mmHg 95%
04:00 +14°C° 0 mm 2 mps 762 mmHg 91%
05:00 +14°C° 0 mm 2 mps 762 mmHg 88%
06:00 +14°C° 0 mm 3 mps 762 mmHg 84%
07:00 +17°C° 0 mm 3 mps 762 mmHg 76%
08:00 +19°C° 0 mm 3 mps 762 mmHg 68%
09:00 +21°C° 0 mm 4 mps 762 mmHg 60%
10:00 +22°C° 0 mm 4 mps 762 mmHg 54%
11:00 +25°C° 0 mm 4 mps 762 mmHg 48%
12:00 +26°C° 0 mm 3 mps 762 mmHg 42%
13:00 +26°C° 0 mm 3 mps 762 mmHg 40%
14:00 +26°C° 0 mm 3 mps 761 mmHg 39%
15:00 +27°C° 0 mm 3 mps 761 mmHg 37%
16:00 +25°C° 0 mm 3 mps 761 mmHg 45%
17:00 +24°C° 0 mm 2 mps 761 mmHg 52%
18:00 +23°C° 0 mm 1 mps 761 mmHg 60%
19:00 +21°C° 0 mm 1 mps 761 mmHg 63%
20:00 +20°C° 0 mm 1 mps 761 mmHg 67%
21:00 +19°C° 0 mm 1 mps 761 mmHg 71%
22:00 +18°C° 0 mm 1 mps 761 mmHg 71%
23:00 +18°C° 0 mm 1 mps 761 mmHg 72%

13 May, Thursday

Time Temperature Precipitation Wind Pressure Humidity
00:00 +18°C° 0 mm 1 mps 761 mmHg 73%
01:00 +16°C° 0 mm 1 mps 761 mmHg 75%
02:00 +16°C° 0 mm 1 mps 761 mmHg 76%
03:00 +15°C° 0 mm 1 mps 761 mmHg 78%
04:00 +16°C° 0 mm 2 mps 761 mmHg 76%
05:00 +16°C° 0 mm 2 mps 761 mmHg 75%
06:00 +17°C° 0 mm 2 mps 761 mmHg 73%
07:00 +19°C° 0 mm 2 mps 761 mmHg 65%
08:00 +21°C° 0 mm 2 mps 761 mmHg 56%
09:00 +24°C° 0 mm 3 mps 761 mmHg 48%
10:00 +25°C° 0 mm 3 mps 761 mmHg 43%
11:00 +26°C° 0 mm 4 mps 760 mmHg 39%
12:00 +26°C° 0 mm 4 mps 760 mmHg 35%
13:00 +26°C° 0 mm 4 mps 760 mmHg 35%
14:00 +26°C° 0 mm 4 mps 760 mmHg 35%
15:00 +26°C° 0 mm 5 mps 760 mmHg 35%
16:00 +25°C° 0 mm 4 mps 759 mmHg 41%
17:00 +24°C° 0 mm 3 mps 759 mmHg 47%
18:00 +22°C° 0 mm 3 mps 759 mmHg 53%
19:00 +21°C° 0 mm 3 mps 759 mmHg 58%
20:00 +19°C° 0 mm 2 mps 759 mmHg 63%
21:00 +18°C° 0 mm 2 mps 759 mmHg 68%
22:00 +18°C° 0 mm 2 mps 759 mmHg 69%
23:00 +18°C° 0 mm 2 mps 759 mmHg 71%

14 May, Friday

Time Temperature Precipitation Wind Pressure Humidity
00:00 +18°C° 0 mm 2 mps 758 mmHg 72%
01:00 +17°C° 0 mm 2 mps 758 mmHg 75%
02:00 +16°C° 0 mm 2 mps 758 mmHg 77%
03:00 +16°C° 0 mm 2 mps 758 mmHg 80%
04:00 +16°C° 0 mm 2 mps 758 mmHg 78%
05:00 +17°C° 0 mm 2 mps 758 mmHg 77%
06:00 +18°C° 0 mm 2 mps 758 mmHg 76%
07:00 +20°C° 0 mm 2 mps 758 mmHg 67%
08:00 +21°C° 0 mm 3 mps 758 mmHg 59%
09:00 +24°C° 0 mm 3 mps 758 mmHg 50%
10:00 +25°C° 0 mm 4 mps 758 mmHg 46%
11:00 +27°C° 0 mm 4 mps 757 mmHg 42%
12:00 +28°C° 0 mm 4 mps 757 mmHg 37%
13:00 +28°C° 0 mm 4 mps 757 mmHg 37%
14:00 +28°C° 0 mm 4 mps 757 mmHg 37%
15:00 +28°C° 0 mm 4 mps 757 mmHg 37%
16:00 +27°C° 0 mm 4 mps 756 mmHg 43%
17:00 +26°C° 0 mm 4 mps 756 mmHg 48%
18:00 +25°C° 0 mm 3 mps 756 mmHg 53%
19:00 +22°C° 0 mm 3 mps 756 mmHg 61%
20:00 +20°C° 0 mm 3 mps 755 mmHg 69%
21:00 +18°C° 0 mm 2 mps 755 mmHg 76%
22:00 +18°C° 0 mm 2 mps 755 mmHg 79%
23:00 +17°C° 0 mm 2 mps 755 mmHg 81%

15 May, Saturday

Time Temperature Precipitation Wind Pressure Humidity
00:00 +17°C° 0 mm 2 mps 755 mmHg 83%
01:00 +16°C° 0 mm 2 mps 755 mmHg 84%
02:00 +16°C° 0 mm 2 mps 755 mmHg 84%
03:00 +16°C° 0 mm 2 mps 755 mmHg 85%
04:00 +16°C° 0 mm 2 mps 754 mmHg 81%
05:00 +17°C° 0 mm 2 mps 754 mmHg 78%
06:00 +19°C° 0 mm 1 mps 754 mmHg 75%
07:00 +20°C° 0 mm 2 mps 754 mmHg 69%
08:00 +23°C° 0 mm 2 mps 754 mmHg 63%
09:00 +25°C° 0 mm 2 mps 754 mmHg 56%
10:00 +26°C° 0 mm 2 mps 754 mmHg 53%
11:00 +27°C° 0 mm 3 mps 754 mmHg 49%
12:00 +28°C° 0 mm 3 mps 754 mmHg 45%
13:00 +28°C° 0 mm 3 mps 753 mmHg 45%
14:00 +29°C° 0 mm 3 mps 753 mmHg 44%
15:00 +29°C° 0 mm 3 mps 753 mmHg 43%
16:00 +28°C° 0 mm 3 mps 753 mmHg 49%
17:00 +27°C° 0 mm 3 mps 753 mmHg 55%
18:00 +26°C° 0 mm 2 mps 752 mmHg 61%
19:00 +24°C° 0 mm 2 mps 752 mmHg 67%
20:00 +21°C° 0 mm 2 mps 752 mmHg 74%
21:00 +20°C° 0 mm 2 mps 752 mmHg 81%
22:00 +19°C° 0 mm 2 mps 752 mmHg 82%
23:00 +18°C° 0 mm 2 mps 752 mmHg 83%
Show more

We Need Your Consent

Meteoprog and our Service Providers may store and access personal data such as cookies, device identifiers or other similar technologies on your device and process such data to personalise content and ads, as well as provide social media features and to analyse the traffic.

  • Store and/or access information on your device

    Cookies, device identifiers or other information can be stored or accessed on your device for the purposes indicated above.

  • Personalised ads and content, ad and content measurement, audience insights, and products development

    Ads and content can be personalised based on a profile. More data can be added to better personalise ads and content. Ad and content performance can be measured. Insights about the audience who saw the ads and content can be derived. Such data can be used to develop or improve user’s experience, systems and software.

By clicking ‘I Agree’ you will allow the use of indicated cookies, device identifiers, web beacons or other similar technologies. Your settings can be changed in the browser on your device.

For certain purposes, legitimate interests may be relied on, rather than consent. You can read more about this in our Privacy and Cookie Policy.